Wind_Speed
37 37 37 36 36 37 36 36 37 37 37 37 38 38 39 40 40 41 41 41 40 39 40 41 41 40 40 41 41 40 40 41 40 39 39 40 40 40 40 40 40 40 39
36 36 35 35 35 36 36 37 37 37 38 38 39 39 40 40 41 41 42 43 41 40 41 42 42 41 41 40 40 41 40 41 40 40 40 41 40 40 40 40 40 40 40
34 34 34 34 35 36 36 36 36 37 38 38 38 39 39 40 41 41 41 42 41 42 41 41 42 42 42 41 41 41 41 41 41 41 41 41 41 41 40 41 41 41 41
33 33 34 34 34 34 34 35 36 36 37 37 37 38 38 38 39 40 41 42 42 41 40 41 42 41 41 42 42 42 43 42 41 41 41 41 41 42 42 42 42 42 42
31 32 32 33 33 33 33 34 34 35 35 36 36 35 36 36 37 37 38 39 39 39 39 40 41 41 41 41 42 43 43 42 41 41 40 40 41 42 42 42 42 42 42
30 30 30 31 31 31 31 32 32 32 33 33 34 34 34 35 36 36 37 37 38 38 38 39 39 40 40 40 42 43 43 41 41 41 40 39 39 40 41 41 42 42 42
28 28 28 28 29 29 30 30 30 31 31 31 32 33 34 35 35 36 36 36 36 36 36 38 39 40 39 40 41 41 41 42 42 41 40 40 40 40 41 41 41 41 41
26 27 27 27 28 28 28 29 30 30 30 31 31 31 32 33 33 34 35 36 35 35 35 36 37 38 38 39 38 39 40 41 40 40 40 40 40 40 40 41 41 40 40
26 26 26 27 27 28 29 28 28 28 29 30 30 30 30 30 31 32 34 34 35 35 35 35 36 38 38 38 38 39 40 39 38 38 39 39 39 39 38 38 38 38 38
26 27 27 27 27 27 28 28 28 28 29 29 29 30 30 30 31 31 32 33 34 34 34 35 35 37 37 38 38 38 37 36 36 37 37 37 37 37 37 36 37 37 37
26 27 27 27 27 28 28 28 29 29 30 30 30 30 30 30 30 31 32 33 33 33 34 35 35 36 37 38 38 38 36 35 35 36 36 36 35 35 35 36 36 36 36
26 26 26 26 26 27 27 28 29 29 29 29 30 30 30 30 30 30 31 32 33 33 33 34 35 36 37 36 36 36 36 35 34 34 35 36 36 35 35 35 35 35 34
24 25 25 25 26 26 26 27 27 28 28 28 29 29 29 30 30 30 31 32 32 32 33 34 34 35 35 35 35 35 35 35 34 34 35 36 36 35 35 35 35 34 33
22 23 23 24 25 26 26 25 26 26 27 28 28 28 28 28 28 29 30 31 32 32 32 33 33 33 33 33 33 33 34 34 35 35 34 35 34 35 35 35 34 33 33
21 21 22 23 24 24 24 24 25 26 26 27 27 27 28 29 29 29 30 30 30 31 32 32 32 31 32 31 31 32 33 34 35 35 34 34 34 34 34 33 33 32 32
21 22 22 22 22 23 24 24 25 25 25 26 26 26 27 28 29 29 29 30 30 31 32 32 32 32 31 30 30 31 32 33 33 33 33 33 33 32 32 32 32 32 31
22 22 22 22 22 22 23 23 24 25 25 25 25 25 25 26 27 28 29 30 30 31 32 32 32 31 31 30 31 31 31 32 32 32 32 32 32 32 32 32 31 31 30
22 22 22 22 22 22 22 23 23 24 24 25 24 23 24 25 27 28 28 29 30 30 30 30 31 31 31 30 31 31 30 30 29 29 30 31 32 32 32 31 30 30 30
21 22 22 22 23 23 23 23 24 24 24 24 24 24 24 25 26 27 27 28 28 29 29 29 29 29 28 29 29 29 29 28 28 28 29 30 30 31 30 30 30 31 31
22 21 21 22 23 24 23 23 24 24 24 24 24 24 24 25 26 27 27 27 27 27 28 28 27 27 27 27 27 27 28 28 28 28 28 28 29 29 29 29 30 31 30
22 22 22 22 23 24 24 24 24 24 24 24 24 24 24 25 24 25 25 25 25 26 26 27 26 26 26 26 25 25 27 28 28 27 28 28 28 28 28 29 30 30 30
23 23 22 22 23 23 23 23 23 23 23 24 24 24 25 24 24 24 24 23 23 24 25 25 25 25 25 24 24 24 25 26 26 27 27 27 27 27 28 29 29 29 30
24 23 23 22 22 22 22 23 23 23 23 23 23 23 24 25 24 23 23 22 23 23 24 24 24 24 23 22 23 23 23 24 25 25 25 25 26 27 27 28 28 29 30
24 24 23 23 23 23 23 23 23 23 24 24 24 23 24 24 24 24 23 23 23 23 23 23 22 22 21 21 22 23 23 23 24 24 25 26 25 26 26 27 28 28 29
24 24 23 23 23 23 23 23 24 24 23 23 22 22 23 23 23 23 22 22 22 22 22 22 22 21 21 21 22 22 22 23 23 23 24 25 25 25 25 25 26 27 27
24 23 23 23 23 23 23 23 23 23 23 23 22 22 22 22 21 20 20 20 20 20 20 20 21 21 21 21 22 22 22 22 22 23 23 23 24 24 24 24 24 25 25
Wind_Direction
262 263 263 263 264 264 263 264 265 266 267 267 267 266 267 266 265 263 261 261 263 263 263 261 262 263 263 262 262 263 265 265 266 266 266 265 265 265 265 265 266 267 269
262 262 262 263 264 265 264 266 267 268 269 268 268 268 267 266 266 264 263 262 264 263 262 261 262 262 262 261 263 264 265 265 266 267 267 266 264 263 264 265 266 267 268
261 261 261 263 265 265 266 268 269 269 270 270 269 269 268 268 267 265 265 263 264 264 263 262 262 261 261 262 264 264 265 266 267 268 267 266 263 264 264 266 266 267 268
260 260 262 264 266 267 267 269 269 269 270 270 269 269 269 269 268 266 265 263 263 264 263 262 262 262 262 262 264 265 267 267 267 267 267 266 265 264 264 266 267 268 268
259 259 262 265 267 268 268 269 271 271 271 270 268 268 269 269 269 267 265 264 264 265 264 264 262 262 263 265 265 265 267 267 266 267 266 266 266 266 265 266 266 268 269
260 261 262 265 267 269 269 270 271 271 272 272 268 269 270 270 270 268 266 266 265 265 265 264 263 263 263 265 265 265 266 265 265 266 266 266 266 267 268 269 269 268 268
262 262 263 264 266 268 270 270 271 272 273 274 272 271 272 271 269 268 267 267 266 266 265 264 264 263 264 264 265 265 265 265 265 265 266 266 268 270 270 270 270 268 267
266 265 266 266 267 269 271 270 272 272 272 273 274 273 273 272 270 269 267 266 266 266 265 264 264 264 264 265 267 266 265 265 264 264 265 267 269 271 272 271 270 268 267
267 267 267 267 268 270 272 271 270 271 272 273 273 272 272 272 270 269 267 266 266 266 266 266 264 263 263 265 267 265 263 263 262 263 264 267 269 271 273 272 270 268 267
268 269 269 269 270 271 271 271 270 271 272 272 272 272 272 271 270 269 268 268 268 268 267 266 265 265 265 266 266 265 264 263 262 264 266 267 268 270 272 272 270 268 267
267 268 270 271 271 271 272 273 272 271 271 271 271 272 272 271 270 269 269 269 268 268 268 267 268 268 268 267 266 265 265 263 263 265 266 266 271 272 272 272 271 269 266
269 269 270 271 273 275 275 276 275 273 273 273 273 274 274 273 273 271 270 269 269 268 268 270 270 270 269 268 265 264 265 263 263 265 266 267 271 273 273 272 272 269 265
271 269 270 271 273 276 277 277 277 276 274 273 274 275 276 275 276 274 271 270 270 270 270 271 271 271 270 267 265 265 265 263 263 265 268 270 271 272 273 273 271 269 265
272 272 272 273 275 277 279 279 278 278 277 275 274 275 276 276 277 276 275 272 271 271 271 271 271 271 269 266 264 265 264 263 264 267 269 270 271 272 272 271 270 269 266
275 275 276 277 279 280 280 281 281 280 280 277 275 275 276 277 277 276 276 274 273 271 271 271 271 269 268 266 264 265 264 264 266 268 269 270 271 272 271 270 268 267 266
279 280 281 282 282 282 282 283 283 282 282 282 278 277 277 277 277 277 276 274 272 272 272 271 270 268 268 266 266 267 266 265 267 268 269 269 269 269 270 268 266 265 264
280 281 282 283 284 283 282 283 283 283 283 283 281 279 278 278 278 277 276 275 274 274 273 271 269 268 267 266 266 267 266 266 267 269 269 268 268 268 268 266 265 263 264
280 282 282 281 282 283 283 284 285 285 284 283 279 278 279 279 278 279 278 276 275 274 274 272 269 267 267 265 266 266 265 266 267 268 269 269 269 267 266 263 262 263 264
282 282 280 281 282 283 284 286 286 288 287 284 281 280 281 282 282 281 279 277 276 274 274 275 270 267 266 265 265 263 264 265 267 269 270 269 268 267 264 262 263 264 264
281 281 280 280 282 282 284 286 288 289 288 287 283 283 285 285 284 283 282 279 278 276 275 275 273 270 268 266 265 264 265 266 267 269 269 270 268 264 262 261 262 262 261
281 280 281 282 282 283 285 287 288 289 290 287 285 285 286 286 286 286 285 283 279 278 276 275 275 273 270 268 267 267 266 266 267 268 269 269 266 263 262 262 262 260 259
282 282 282 283 283 283 284 287 289 290 291 289 287 287 286 286 287 286 287 285 282 280 279 277 276 275 272 270 270 270 269 268 269 269 269 266 262 262 262 262 261 259 258
283 283 284 284 284 285 286 289 290 289 290 289 289 288 287 286 286 286 287 285 284 284 282 279 276 274 271 269 269 270 271 271 270 269 269 266 261 262 265 263 260 258 258
284 283 284 284 284 285 289 289 289 290 291 290 290 290 288 287 286 285 285 283 282 283 283 280 275 272 270 270 270 271 272 273 272 270 268 266 263 262 264 263 260 260 260
283 282 281 283 285 285 288 291 293 293 293 290 289 290 290 289 288 287 285 283 283 283 281 278 274 272 270 271 270 271 273 273 272 271 266 263 264 265 264 262 261 261 260
284 284 283 283 285 284 286 289 290 291 291 289 289 290 291 290 290 289 286 284 285 283 280 278 275 273 271 271 272 273 274 274 272 270 267 265 266 266 264 263 262 261 259
Height
5703 5703 5703 5703 5703 5703 5703 5703 5702 5702 5701 5700 5700 5700 5700 5699 5699 5699 5700 5700 5701 5702 5703 5704 5705 5706 5707 5708 5708 5709 5710 5710 5709 5709 5710 5710 5710 5710 5710 5710 5711 5711 5712
5693 5693 5693 5694 5694 5694 5693 5693 5693 5692 5692 5691 5690 5690 5689 5689 5688 5689 5689 5690 5691 5692 5693 5694 5695 5696 5697 5698 5699 5700 5700 5700 5699 5699 5698 5699 5700 5700 5700 5700 5701 5701 5701
5684 5684 5684 5685 5685 5684 5684 5684 5683 5682 5681 5680 5680 5679 5679 5679 5679 5679 5679 5680 5680 5681 5682 5684 5685 5686 5687 5688 5689 5689 5690 5690 5689 5688 5688 5688 5689 5690 5691 5691 5691 5691 5691
5675 5675 5676 5676 5676 5675 5675 5675 5674 5673 5671 5670 5669 5669 5669 5669 5669 5668 5668 5669 5670 5671 5672 5674 5675 5676 5677 5678 5678 5679 5679 5679 5678 5677 5677 5678 5679 5679 5681 5681 5680 5680 5680
5666 5666 5667 5667 5667 5667 5666 5665 5664 5663 5662 5660 5659 5659 5659 5658 5658 5658 5658 5659 5660 5661 5662 5663 5664 5665 5666 5667 5667 5668 5668 5668 5668 5667 5667 5668 5668 5668 5669 5670 5669 5669 5668
5657 5657 5658 5658 5658 5658 5657 5657 5655 5654 5652 5651 5650 5649 5649 5649 5649 5649 5649 5650 5650 5651 5652 5652 5653 5655 5655 5656 5657 5657 5657 5657 5657 5657 5657 5657 5658 5658 5658 5658 5658 5658 5658
5649 5649 5649 5650 5650 5649 5649 5648 5647 5646 5644 5643 5641 5641 5640 5639 5639 5640 5640 5641 5641 5641 5642 5642 5643 5644 5645 5646 5646 5646 5646 5646 5647 5647 5647 5647 5648 5647 5647 5646 5646 5646 5647
5641 5641 5641 5642 5641 5641 5640 5639 5638 5638 5636 5635 5634 5632 5632 5631 5631 5631 5631 5631 5632 5632 5632 5633 5633 5634 5635 5636 5636 5636 5636 5636 5636 5637 5637 5637 5637 5637 5636 5635 5635 5635 5636
5634 5634 5634 5634 5633 5633 5632 5631 5630 5629 5628 5627 5626 5625 5623 5623 5623 5622 5622 5622 5623 5623 5623 5623 5624 5625 5625 5626 5626 5625 5625 5626 5626 5627 5627 5628 5627 5626 5625 5624 5624 5624 5625
5626 5626 5626 5626 5626 5625 5624 5623 5622 5621 5620 5619 5618 5617 5616 5615 5615 5614 5614 5614 5614 5614 5614 5614 5614 5615 5615 5615 5615 5615 5615 5615 5616 5617 5617 5617 5617 5616 5615 5614 5613 5613 5614
5619 5619 5619 5619 5618 5617 5616 5615 5614 5613 5612 5611 5610 5609 5608 5607 5606 5606 5606 5605 5605 5604 5604 5605 5604 5605 5605 5605 5604 5604 5605 5605 5606 5607 5607 5607 5606 5606 5604 5604 5603 5603 5603
5612 5611 5611 5611 5610 5609 5609 5607 5606 5605 5604 5603 5602 5601 5600 5599 5598 5597 5597 5597 5596 5596 5595 5595 5595 5595 5595 5595 5595 5595 5595 5596 5596 5597 5597 5597 5596 5595 5594 5593 5593 5593 5593
5604 5604 5604 5603 5603 5602 5601 5600 5598 5597 5596 5595 5594 5593 5592 5591 5590 5589 5588 5588 5587 5587 5586 5586 5586 5586 5585 5585 5585 5585 5586 5586 5587 5587 5587 5587 5586 5586 5584 5584 5583 5583 5584
5598 5597 5597 5596 5595 5594 5593 5592 5591 5589 5588 5587 5586 5585 5584 5583 5582 5580 5580 5579 5578 5577 5577 5577 5577 5577 5576 5576 5576 5576 5576 5577 5577 5578 5578 5578 5577 5576 5575 5575 5574 5574 5574
5592 5591 5590 5589 5588 5587 5586 5584 5583 5582 5580 5579 5578 5577 5576 5575 5573 5572 5571 5570 5569 5568 5568 5568 5568 5567 5567 5567 5567 5567 5567 5568 5568 5568 5568 5568 5567 5567 5566 5565 5565 5565 5565
5586 5585 5584 5583 5581 5580 5579 5577 5576 5574 5572 5571 5569 5568 5567 5566 5564 5563 5562 5561 5560 5559 5559 5559 5559 5558 5558 5558 5558 5558 5558 5558 5558 5558 5558 5558 5557 5557 5557 5556 5556 5556 5557
5580 5579 5578 5576 5575 5573 5572 5571 5569 5567 5565 5563 5562 5560 5559 5557 5556 5555 5554 5552 5551 5551 5550 5549 5549 5549 5549 5549 5549 5549 5548 5549 5549 5548 5548 5548 5548 5547 5547 5547 5547 5548 5548
5574 5572 5571 5569 5568 5567 5565 5564 5562 5560 5558 5556 5554 5552 5551 5549 5548 5547 5545 5544 5542 5541 5541 5540 5540 5539 5540 5539 5540 5539 5539 5539 5539 5539 5539 5538 5538 5538 5538 5538 5538 5539 5540
5567 5566 5564 5563 5561 5560 5558 5556 5554 5552 5550 5548 5547 5545 5543 5541 5540 5538 5536 5535 5533 5533 5532 5531 5531 5530 5530 5530 5530 5530 5530 5530 5530 5530 5530 5529 5529 5529 5528 5529 5530 5531 5532
5560 5559 5557 5556 5554 5552 5551 5549 5547 5545 5543 5540 5539 5537 5535 5534 5532 5530 5527 5526 5525 5524 5523 5523 5522 5522 5522 5522 5521 5521 5522 5522 5522 5522 5521 5520 5520 5519 5519 5519 5521 5522 5523
5553 5552 5550 5549 5547 5545 5543 5542 5540 5538 5535 5533 5531 5529 5527 5526 5524 5521 5519 5518 5517 5516 5515 5515 5514 5514 5513 5513 5514 5513 5513 5513 5513 5513 5512 5512 5511 5511 5511 5511 5512 5513 5514
5547 5545 5543 5541 5539 5538 5536 5534 5532 5530 5528 5525 5523 5521 5519 5518 5516 5514 5512 5510 5509 5508 5507 5507 5506 5506 5505 5505 5505 5505 5505 5504 5504 5504 5504 5503 5503 5502 5502 5502 5503 5504 5505
5540 5538 5536 5535 5533 5531 5529 5527 5525 5523 5521 5519 5516 5514 5512 5510 5508 5506 5505 5503 5502 5501 5500 5499 5499 5498 5498 5497 5497 5497 5496 5496 5496 5495 5495 5495 5494 5494 5494 5494 5495 5496 5497
5532 5531 5529 5528 5526 5524 5522 5520 5518 5516 5514 5512 5510 5507 5505 5503 5501 5499 5497 5496 5495 5494 5493 5492 5491 5491 5491 5490 5490 5489 5489 5488 5487 5487 5487 5486 5486 5486 5486 5486 5487 5488 5489
5525 5523 5522 5520 5519 5517 5516 5514 5512 5509 5507 5505 5503 5501 5498 5496 5494 5492 5490 5489 5488 5487 5486 5485 5485 5485 5485 5484 5483 5483 5482 5481 5480 5479 5479 5478 5478 5478 5479 5479 5479 5480 5481
5518 5516 5515 5513 5512 5510 5508 5507 5505 5503 5501 5499 5496 5494 5492 5490 5487 5485 5483 5482 5481 5480 5479 5478 5478 5478 5478 5477 5477 5476 5475 5474 5473 5472 5471 5471 5471 5471 5471 5471 5472 5473 5474